Cosmos 1151 Rocket - Orbit

View from above orbital plane
View from above orbital plane
View from above satellite
View from above satellite

Ground track
Ground track

The orbit data is extracted from the following two-line orbital elements,

1 11672U 80005B   13138.47127025  .00000501  00000-0  53499-4 0  6957
2 11672 082.5182 045.4100 0016433 217.9679 195.0432 14.86750807801804
Epoch (UTC): 18 May 2013 11:18:37
Eccentricity: 0.0016433
inclination: 82.5182°
perigee height: 596 km
apogee height: 619 km
right ascension of ascending node: 45.4100°
argument of perigee: 217.9679°
revolutions per day: 14.86750807
mean anomaly at epoch: 195.0432°
orbit number at epoch: 80180

The dashed part of the orbit path shows where the satellite is in the earth's shadow,  

Developed and maintained by Chris Peat, Heavens-Above GmbH. Please read the updated FAQ before sending e-mail. Imprint. DLR